sat.trackr.live / text

‹ back to catalog

INTELSAT 21 (IS-21)

NORAD 38749 · 2012-045A

PAYLOAD ACTIVE UNKNOWN

§ Identity

Operator
Country
ITSO
Launch date
2012-08-19
Launch site
SEAL
Launch vehicle
Mass (kg)
RCS (m²)
52.40

Purposes: comms

External: N2YO · Heavens-Above · Gunter

§ Orbital elements

Epoch: 2026-09-20T03:03:28.084896Z

Period
1,436.10 min
Inclination
0.0159°
Eccentricity
0.0002081
Mean motion
1.00271603 rev/d
Perigee alt
35,777.9 km
Apogee alt
35,795.4 km
Semi-major
42,164.8 km
B*
0.0000e+0
RAAN
131.2776°
Arg perigee
38.0799°
Mean anomaly
177.5595°
Rev number
5,147

§ Raw data

INTELSAT 21 (IS-21)1 38749U 12045A   26263.12740839 -.00000289  00000+0  00000+0 0  99942 38749   0.0159 131.2776 0002081  38.0799 177.5595  1.00271603 51478

JSON: /api/v1/satellites/38749 · /tle

For live sub-satellite position, see the globe view (requires WebGL).

§ Visibility from observer

Set your observer location to see the next 7 days of passes ≥ 10°. The values pass through the URL so the page stays shareable.

No JS? Fill the form by hand. The geolocation button needs JavaScript.